Theta_e
317 317 317 317 318 318 319 319 319 320 320 321 321 321 322 322 320 303 298 306 310 332 330 310 307 306 301 297 296 291 286 284 289 289 292 295 294 298 301 299 301 302 301 304 308
315 317 318 318 318 318 319 319 319 320 320 320 321 321 322 322 305 300 318 329 332 332 309 306 304 303 297 296 296 291 287 289 291 292 295 294 293 296 297 298 298 300 303 306 307
316 317 318 318 318 318 318 319 319 320 320 320 320 321 322 319 298 300 330 336 336 329 309 306 302 300 296 295 296 293 290 292 294 295 294 294 295 296 296 294 297 298 301 303 306
316 317 317 318 318 318 318 318 318 319 319 320 320 321 322 306 291 305 341 337 333 314 306 304 301 296 292 293 294 294 295 295 296 296 294 295 296 296 295 296 300 300 301 302 302
316 316 317 317 317 318 318 318 318 318 318 319 321 322 310 299 299 308 333 323 310 309 305 302 299 295 293 292 294 293 294 296 297 297 295 297 294 295 295 299 300 301 302 301 301
314 315 316 316 317 317 318 317 317 316 317 320 322 322 306 295 307 310 308 309 308 305 304 302 301 299 295 292 293 294 295 296 296 296 294 293 294 294 297 299 300 300 300 299 300
314 314 315 316 316 317 317 317 316 316 318 322 323 317 307 299 311 308 306 304 306 307 303 302 303 300 296 294 296 295 293 294 294 294 292 294 293 293 297 298 298 299 299 300 301
314 313 314 315 316 317 317 317 316 317 319 322 324 311 301 312 313 306 305 306 307 306 303 303 303 299 296 295 296 292 290 287 294 294 293 293 287 295 296 296 297 298 299 299 299
313 313 313 314 315 316 316 315 317 319 321 322 307 300 299 314 306 309 306 303 305 305 304 307 302 295 296 290 287 288 284 286 290 293 292 291 289 294 296 296 296 296 296 298 300
313 313 313 314 315 315 314 315 319 317 319 318 311 299 303 304 308 307 306 305 304 302 301 299 294 291 289 288 282 285 284 285 286 291 290 289 289 292 296 295 295 295 299 301 302
312 312 313 314 315 314 308 304 303 300 301 300 300 302 305 310 310 304 306 305 303 299 292 294 291 287 290 290 291 289 287 286 288 293 289 289 289 291 294 294 294 294 300 301 302
311 311 312 313 314 313 305 304 303 303 299 304 303 303 307 309 303 306 307 300 297 292 293 291 288 294 294 293 292 290 287 286 290 292 290 289 290 292 293 293 292 299 300 301 301
311 311 311 313 313 308 305 305 306 303 296 301 304 303 303 306 302 304 304 299 295 291 291 289 294 297 295 292 291 288 286 286 287 290 290 288 285 288 292 294 298 299 300 301 302
311 311 311 311 307 304 305 309 307 305 294 301 301 301 302 301 299 306 304 300 295 292 291 291 295 295 292 291 291 285 291 290 289 285 281 287 278 284 289 292 296 298 299 301 302
310 311 311 311 302 305 308 307 305 309 284 301 299 303 302 298 300 305 308 302 293 294 293 292 291 291 289 291 293 289 292 290 288 283 282 282 279 282 288 290 293 296 301 302 302
310 310 310 309 305 309 309 306 309 295 285 295 298 296 297 299 301 304 303 304 301 295 294 292 297 294 292 295 294 294 289 286 283 281 275 280 280 280 285 290 294 298 302 303 301
310 309 306 309 304 307 306 306 294 287 296 293 292 295 295 296 298 299 297 294 290 287 287 291 292 295 297 291 292 290 283 274 274 273 275 282 282 283 289 293 297 298 300 301 300
308 308 307 308 305 306 305 298 287 292 291 296 296 295 293 297 296 297 294 290 295 292 285 284 284 292 297 292 288 286 283 275 270 272 276 285 279 285 293 295 299 300 300 299 297
307 307 309 310 310 305 301 287 287 291 296 295 294 291 291 295 294 293 291 291 295 293 285 284 286 295 296 294 293 286 280 285 277 278 280 280 284 290 293 295 298 298 298 296 296
305 306 304 306 308 307 298 293 293 300 299 297 289 293 288 290 290 290 290 296 296 298 295 290 283 292 295 294 293 288 290 279 277 271 275 279 280 283 288 290 292 293 294 296 296
305 302 306 306 308 300 291 291 295 301 302 297 292 291 291 290 291 289 291 295 298 297 295 291 284 287 290 288 287 286 282 284 282 285 276 276 278 288 288 291 290 293 295 294 295
300 297 307 304 294 290 291 295 299 300 301 298 296 295 292 292 289 290 290 294 300 297 289 291 285 281 286 293 292 289 287 285 276 278 282 281 282 295 293 292 293 294 298 294 295
296 297 304 301 288 288 293 296 299 298 297 295 295 295 293 290 284 290 293 299 299 296 290 290 281 275 281 284 288 286 288 288 288 285 282 281 282 293 293 294 296 295 294 295 296
294 290 292 293 292 290 289 291 292 299 297 296 294 294 291 288 289 288 290 295 299 297 304 299 285 283 279 283 284 284 287 290 290 284 284 285 286 291 293 292 293 292 294 295 296
291 289 290 285 288 290 289 291 291 291 295 295 291 292 288 284 286 288 291 293 295 298 293 291 283 285 288 289 289 288 288 288 287 288 284 287 287 291 293 292 291 293 294 294 294
289 287 289 287 290 288 289 288 290 292 291 290 289 291 289 286 288 287 289 288 288 290 287 288 283 284 283 289 288 286 289 289 290 290 289 289 287 291 292 293 292 293 293 292 292
293 292 291 289 288 286 286 288 290 292 293 295 291 288 287 290 292 293 294 293 292 288 286 285 282 281 279 287 288 281 286 288 288 289 285 283 289 290 292 293 293 292 292 291 292
Wind_Speed
13 12 11 10 10 10 10 10 10 10 10 11 12 12 12 14 9 1 5 1 4 9 9 6 3 5 4 5 5 3 7 2 3 1 4 5 5 3 4 4 5 3 0 3 4
13 12 12 12 11 10 10 10 10 10 10 10 12 12 10 12 3 5 1 1 4 8 7 10 9 7 6 5 4 7 5 5 2 1 2 3 1 4 2 5 3 5 4 3 4
13 13 12 12 11 10 10 10 9 9 9 9 11 13 14 7 7 5 3 5 3 4 2 2 3 5 7 4 6 1 3 1 1 3 2 2 3 3 4 4 3 8 11 9 1
14 14 13 12 12 11 10 9 9 8 8 8 9 10 11 4 5 5 6 5 6 2 5 7 10 6 5 4 5 4 3 2 4 1 2 2 2 4 1 1 6 4 6 6 8
16 15 14 13 12 11 10 9 9 8 7 8 9 9 1 6 1 3 4 8 5 5 4 4 7 4 4 2 4 4 3 4 5 8 3 3 2 4 4 4 6 7 7 8 8
17 16 15 14 13 12 10 10 9 9 8 8 10 10 4 7 3 6 3 5 4 4 4 4 3 2 4 2 3 3 4 9 5 6 2 1 1 2 4 5 8 8 10 7 5
18 17 15 14 13 12 11 10 9 9 8 7 8 3 4 4 3 5 3 1 1 2 5 2 3 4 2 4 3 3 6 6 2 3 4 3 6 4 2 4 7 9 8 9 9
18 17 16 15 14 13 12 11 10 8 6 4 7 2 2 2 4 4 1 4 2 3 2 5 4 5 4 0 8 6 6 6 8 6 1 4 8 8 5 7 9 9 8 8 9
18 17 17 16 15 14 13 13 8 4 3 3 2 4 6 7 1 5 4 3 1 2 5 3 6 4 6 4 6 7 2 4 9 6 4 1 8 7 6 5 9 9 8 8 9
19 17 16 16 16 14 17 4 5 5 2 2 1 3 3 1 4 2 3 1 2 3 7 9 7 4 4 6 2 5 3 4 6 7 2 9 11 9 8 6 9 7 6 6 7
21 18 17 16 15 14 6 2 7 6 5 4 5 2 5 6 3 3 2 3 2 7 1 4 6 2 5 5 5 3 3 5 6 7 4 7 9 9 11 9 10 5 5 7 7
22 21 18 16 15 9 2 5 3 4 6 3 4 3 6 2 4 3 3 4 3 4 3 6 2 6 3 3 4 4 3 4 7 6 4 10 22 11 9 8 2 3 5 7 7
21 20 19 17 13 3 2 3 3 3 2 7 3 3 3 6 3 7 5 2 3 2 5 6 8 0 4 1 1 2 3 3 7 5 5 7 8 4 2 2 3 3 3 4 5
21 19 17 20 3 1 1 5 5 3 5 4 1 2 2 1 3 2 1 1 1 5 4 5 4 2 3 2 3 3 3 4 7 4 8 3 9 4 2 7 4 5 5 5 5
21 18 14 8 3 2 3 6 1 5 3 1 2 1 5 7 3 8 5 5 1 4 4 9 2 2 2 1 2 7 3 5 5 3 4 4 1 8 2 5 7 6 5 5 2
22 16 9 1 2 3 6 3 4 6 1 2 3 5 5 6 4 8 8 7 2 3 2 4 4 2 1 2 3 3 4 4 4 3 2 3 4 6 4 5 3 2 6 4 6
24 15 2 2 1 5 3 5 6 4 4 5 3 5 3 6 5 6 6 6 3 6 6 8 4 1 2 3 2 8 7 6 8 6 6 2 4 11 8 7 6 7 6 1 5
24 7 1 1 4 5 5 6 3 1 2 2 4 3 3 6 2 7 5 5 3 4 1 1 7 3 1 2 4 1 6 6 5 3 6 5 8 8 5 5 4 5 6 6 3
13 3 3 6 3 2 7 6 3 0 3 2 3 4 2 1 2 7 3 2 2 2 2 2 5 4 2 3 5 2 2 2 2 1 4 4 7 9 6 6 5 8 6 8 7
3 3 3 9 4 6 6 2 1 3 3 2 1 2 2 2 3 5 3 2 1 3 3 4 7 5 3 2 1 5 7 2 3 3 6 6 6 9 7 10 9 8 8 9 5
4 5 4 8 4 7 4 1 3 3 6 1 3 2 2 2 1 2 4 5 1 1 2 3 4 6 2 5 8 2 2 2 3 4 4 5 6 7 8 11 10 8 8 7 7
3 4 5 4 7 2 2 4 5 5 6 4 3 2 2 1 3 4 5 6 1 2 3 3 4 5 13 13 2 6 8 8 6 6 6 4 14 11 11 10 6 8 14 3 7
3 2 5 5 4 4 6 5 3 7 5 5 3 5 4 1 4 3 4 5 5 1 2 2 2 5 10 6 1 4 5 4 1 3 13 11 10 2 5 7 12 7 7 9 12
4 5 6 7 1 3 3 4 5 6 3 4 2 5 6 3 3 6 5 5 3 3 14 6 5 10 9 14 4 8 10 9 8 7 11 14 23 18 17 9 8 5 6 10 14
5 1 2 5 5 3 1 2 4 7 4 6 3 5 2 4 4 6 4 5 5 9 2 3 7 8 12 19 14 17 20 19 16 21 14 22 17 19 14 9 6 5 7 15 19
4 4 5 1 3 4 4 3 3 4 3 4 2 6 2 6 8 14 4 3 7 4 2 1 7 4 5 13 12 14 16 19 18 16 15 17 16 3 6 6 6 11 13 19 19
2 2 3 2 3 2 1 2 3 4 5 4 3 5 7 6 5 13 13 13 10 6 4 4 3 1 6 5 9 8 7 3 3 2 4 6 9 5 10 18 18 13 16 20 19
Wind_Direction
5 2 358 357 354 348 342 342 340 335 333 330 330 331 332 331 321 72 41 229 311 319 325 272 98 29 48 63 51 118 63 111 120 95 304 315 20 323 309 346 344 357 127 302 348
5 357 354 351 349 345 341 338 334 329 329 331 329 326 336 336 33 42 248 301 319 331 24 30 9 5 50 23 24 72 85 201 187 72 328 279 10 301 15 331 333 324 303 254 294
2 354 352 348 345 342 340 335 332 326 327 330 330 331 336 329 45 313 31 43 333 340 75 56 41 55 51 7 356 65 121 148 129 153 281 276 314 299 315 3 13 296 304 318 304
358 353 350 348 343 340 338 335 327 322 322 325 328 327 328 17 97 269 45 17 351 318 43 32 24 51 62 37 328 82 32 120 269 250 259 275 331 321 107 300 267 298 295 328 348
356 354 349 347 345 341 337 331 322 313 312 322 327 333 50 41 168 290 8 2 9 24 55 38 48 79 64 331 354 59 319 283 280 275 248 175 207 229 184 269 325 2 32 356 341
355 353 348 344 342 337 333 326 317 306 311 328 334 321 67 76 266 345 19 357 12 36 7 62 88 118 102 63 93 314 289 303 326 307 276 234 289 107 225 336 351 8 339 328 299
353 351 347 341 336 333 326 321 309 300 303 326 341 13 64 194 354 343 351 307 317 43 338 12 149 89 120 4 327 339 353 344 359 324 301 290 340 309 247 331 338 335 319 317 317
352 348 345 339 333 328 322 311 297 284 286 308 339 16 232 272 326 331 36 309 243 241 211 335 80 96 58 99 12 29 50 15 293 323 316 62 276 280 300 353 317 305 300 312 310
351 346 344 337 332 327 317 303 283 243 241 283 10 72 288 314 293 267 164 259 353 62 46 72 65 77 25 65 17 6 275 307 314 325 291 184 270 266 321 302 290 295 329 323 316
350 344 341 335 331 328 319 273 112 120 165 224 79 54 310 260 283 276 179 199 34 23 13 34 47 63 42 61 286 279 317 264 260 292 346 290 261 292 292 289 270 298 325 328 323
350 343 340 335 331 332 352 34 19 353 35 203 236 264 281 286 293 238 161 107 98 63 74 3 57 257 246 177 208 232 203 242 262 273 305 256 268 259 269 288 272 333 327 327 336
347 342 341 333 327 331 344 77 142 206 318 266 249 263 258 117 316 292 116 167 147 208 102 18 268 230 259 179 194 200 225 272 289 284 309 290 286 294 229 246 305 214 310 338 337
343 340 338 332 322 6 55 58 355 160 105 301 209 202 246 135 209 302 151 101 182 187 189 159 244 179 228 173 52 281 177 263 244 294 257 289 285 236 298 257 281 309 323 324 301
340 337 336 327 64 295 56 332 337 136 61 310 14 15 51 232 80 345 25 198 18 234 168 225 294 292 282 232 121 321 194 246 279 328 300 94 286 312 1 297 257 300 313 319 356
338 333 330 344 160 94 306 331 139 61 68 293 70 23 4 78 305 337 333 19 286 256 132 251 286 294 265 232 152 233 326 269 286 266 5 326 43 268 295 265 272 310 298 277 314
335 331 324 141 55 265 314 311 61 48 168 9 41 1 42 14 24 328 7 25 331 18 10 243 296 75 118 29 109 324 332 14 50 72 17 249 106 273 258 213 280 286 265 248 4
337 337 170 337 156 311 335 48 44 116 348 349 344 24 85 357 13 21 356 7 28 11 355 337 334 335 67 26 5 44 42 336 348 2 233 353 328 242 256 225 233 261 275 325 12
336 347 190 244 294 338 50 54 89 6 18 333 20 30 90 15 10 335 12 358 2 70 58 51 320 338 174 202 243 216 144 154 268 244 272 286 243 255 246 261 240 267 237 211 298
329 359 44 327 11 43 70 61 186 214 291 9 359 64 344 12 23 20 345 245 219 142 112 295 258 282 280 171 125 184 176 192 144 259 284 245 289 304 275 265 273 267 239 254 264
51 31 352 316 0 58 74 145 122 352 328 83 142 174 230 280 15 20 314 232 239 212 125 260 291 251 296 343 156 162 161 57 350 266 253 252 252 239 286 286 298 293 280 271 277
45 54 273 338 61 44 96 263 315 4 28 200 216 275 239 288 231 252 242 285 132 340 147 166 139 274 11 222 211 195 197 130 181 199 225 290 246 216 236 277 271 269 280 277 289
54 51 318 6 51 34 65 320 326 351 6 350 90 168 227 269 258 254 239 225 95 167 289 199 179 245 246 256 205 192 205 159 149 221 231 245 269 246 265 262 258 284 316 315 296
53 281 326 59 74 2 321 328 4 9 12 13 356 47 22 308 334 248 265 270 315 281 279 198 307 326 322 359 348 198 206 209 95 30 250 265 263 273 282 301 298 307 327 322 311
57 17 342 38 26 109 16 343 324 357 103 5 336 69 16 316 243 280 260 290 1 238 286 193 202 197 235 265 226 261 261 235 219 252 260 246 281 293 291 286 304 334 318 302 298
26 39 154 338 352 7 348 3 349 359 355 8 48 90 32 283 273 253 267 290 303 278 328 141 239 233 249 262 264 269 271 270 244 251 255 276 276 281 297 318 310 300 287 306 308
73 29 2 314 304 335 0 41 6 327 290 317 107 311 302 234 225 290 271 232 231 322 161 235 276 300 273 256 259 267 263 259 269 269 261 267 277 8 311 294 297 304 305 301 301
347 5 107 286 342 24 269 32 313 329 280 245 355 312 285 255 285 272 256 259 244 276 262 231 232 304 269 320 309 286 260 265 288 290 203 283 302 340 329 315 310 304 294 293 293